{"data":{"norad_id":69775,"epoch":"2026-09-20T04:00:03.000096Z","epoch_age_seconds":54220,"freshness":"FRESH","line1":"1 69775U 26151N   26263.16670139 -.00055263  00000+0 -60873-2 0  9999","line2":"2 69775  51.8972 220.8457 0006070 140.8857 330.9406 14.87291971  2738","mean_motion":14.87291971,"eccentricity":0.000607,"inclination_deg":51.8972,"raan_deg":220.8457,"arg_perigee_deg":140.8857,"mean_anomaly_deg":330.9406,"bstar":-0.0060873,"rev_number":273,"period_min":96.820263141191,"perigee_km":602.16140438596,"apogee_km":610.64063354098,"semimajor_km":6984.5380189635,"source":"CELESTRAK","updated_at":"2026-09-20T09:00:25.091309Z"}}